Time,TemperatureF,DewpointF,PressureIn,WindDirection,WindDirectionDegrees,WindSpeedMPH,WindSpeedGustMPH,Humidity,HourlyPrecipIn,Conditions,Clouds,dailyrainin,SoftwareType,DateUTC
2013-02-23 00:10:00,27.4,22.0,30.35,ESE,115,1.0,-999.0,79,-99.99,,,0.00,weatherlink.com 1.10,2013-02-23 05:10:00,
2013-02-23 00:25:00,27.8,22.0,30.34,ESE,112,0.0,-999.0,79,-99.99,,,0.00,weatherlink.com 1.10,2013-02-23 05:25:00,
2013-02-23 00:40:00,27.8,22.0,30.34,SSW,205,0.0,-999.0,79,-99.99,,,0.00,weatherlink.com 1.10,2013-02-23 05:40:00,
2013-02-23 00:55:00,27.8,22.0,30.34,SSW,205,0.0,-999.0,79,-99.99,,,0.00,weatherlink.com 1.10,2013-02-23 05:55:00,
2013-02-23 01:10:00,27.8,22.0,30.33,SSE,161,0.0,-999.0,79,-99.99,,,0.00,weatherlink.com 1.10,2013-02-23 06:10:00,
2013-02-23 01:26:00,27.9,22.0,30.33,SSE,161,0.0,-999.0,79,-99.99,,,0.00,weatherlink.com 1.10,2013-02-23 06:26:00,
2013-02-23 01:41:00,27.9,22.0,30.33,SSE,161,0.0,-999.0,79,-99.99,,,0.00,weatherlink.com 1.10,2013-02-23 06:41:00,
2013-02-23 01:56:00,28.0,22.0,30.33,SSE,163,1.0,-999.0,79,-99.99,,,0.00,weatherlink.com 1.10,2013-02-23 06:56:00,
2013-02-23 02:11:00,28.0,22.0,30.32,SSE,168,0.0,-999.0,79,-99.99,,,0.00,weatherlink.com 1.10,2013-02-23 07:11:00,
2013-02-23 02:26:00,28.0,23.0,30.32,South,176,1.0,-999.0,80,-99.99,,,0.00,weatherlink.com 1.10,2013-02-23 07:26:00,
2013-02-23 02:41:00,28.1,23.0,30.32,SE,126,0.0,-999.0,80,-99.99,,,0.00,weatherlink.com 1.10,2013-02-23 07:41:00,
2013-02-23 02:56:00,28.1,23.0,30.31,ESE,119,0.0,-999.0,80,-99.99,,,0.00,weatherlink.com 1.10,2013-02-23 07:56:00,
2013-02-23 03:11:00,28.1,23.0,30.30,SE,137,0.0,-999.0,80,-99.99,,,0.00,weatherlink.com 1.10,2013-02-23 08:11:00,
2013-02-23 03:26:00,28.1,23.0,30.30,SE,137,1.0,-999.0,80,-99.99,,,0.00,weatherlink.com 1.10,2013-02-23 08:26:00,
2013-02-23 03:41:00,28.1,23.0,30.29,ESE,110,0.0,-999.0,81,-99.99,,,0.00,weatherlink.com 1.10,2013-02-23 08:41:00,
2013-02-23 03:56:00,28.1,23.0,30.29,SSE,153,0.0,-999.0,81,-99.99,,,0.00,weatherlink.com 1.10,2013-02-23 08:56:00,
2013-02-23 04:11:00,28.1,23.0,30.28,SE,137,0.0,-999.0,81,-99.99,,,0.00,weatherlink.com 1.10,2013-02-23 09:11:00,
2013-02-23 04:26:00,28.2,23.0,30.28,SSE,156,0.0,-999.0,82,-99.99,,,0.00,weatherlink.com 1.10,2013-02-23 09:26:00,
2013-02-23 04:41:00,28.3,24.0,30.28,SSE,148,0.0,-999.0,82,-99.99,,,0.00,weatherlink.com 1.10,2013-02-23 09:41:00,
2013-02-23 04:56:00,28.3,24.0,30.28,SSE,165,2.0,-999.0,82,-99.99,,,0.00,weatherlink.com 1.10,2013-02-23 09:56:00,
2013-02-23 05:11:00,28.2,23.0,30.28,SE,139,0.0,-999.0,82,-99.99,,,0.00,weatherlink.com 1.10,2013-02-23 10:11:00,
2013-02-23 05:26:00,28.0,23.0,30.28,South,171,0.0,-999.0,82,-99.99,,,0.00,weatherlink.com 1.10,2013-02-23 10:26:00,
2013-02-23 05:41:00,28.0,24.0,30.28,SSE,153,0.0,-999.0,83,-99.99,,,0.00,weatherlink.com 1.10,2013-02-23 10:41:00,
2013-02-23 05:56:00,28.0,24.0,30.27,SE,124,0.0,-999.0,83,-99.99,,,0.00,weatherlink.com 1.10,2013-02-23 10:56:00,
2013-02-23 06:11:00,28.0,24.0,30.27,East,87,0.0,-999.0,83,-99.99,,,0.00,weatherlink.com 1.10,2013-02-23 11:11:00,
2013-02-23 06:26:00,28.0,24.0,30.26,East,100,0.0,-999.0,83,-99.99,,,0.00,weatherlink.com 1.10,2013-02-23 11:26:00,
2013-02-23 06:41:00,28.0,24.0,30.26,ESE,119,2.0,-999.0,83,-99.99,,,0.00,weatherlink.com 1.10,2013-02-23 11:41:00,
2013-02-23 06:56:00,28.1,24.0,30.26,SE,136,0.0,-999.0,83,-99.99,,,0.00,weatherlink.com 1.10,2013-02-23 11:56:00,
2013-02-23 07:11:00,28.2,24.0,30.25,SE,124,0.0,-999.0,83,-99.99,,,0.00,weatherlink.com 1.10,2013-02-23 12:11:00,
2013-02-23 07:26:00,28.3,24.0,30.25,South,172,0.0,-999.0,83,-99.99,,,0.00,weatherlink.com 1.10,2013-02-23 12:26:00,
2013-02-23 07:41:00,28.4,24.0,30.26,SSE,149,1.0,-999.0,84,-99.99,,,0.00,weatherlink.com 1.10,2013-02-23 12:41:00,
2013-02-23 07:56:00,28.6,24.0,30.25,SE,125,2.0,-999.0,84,-99.99,,,0.00,weatherlink.com 1.10,2013-02-23 12:56:00,
2013-02-23 08:11:00,28.8,25.0,30.25,WSW,238,0.0,-999.0,84,-99.99,,,0.00,weatherlink.com 1.10,2013-02-23 13:11:00,
2013-02-23 08:26:00,29.0,25.0,30.25,SSE,164,1.0,-999.0,84,-99.99,,,0.00,weatherlink.com 1.10,2013-02-23 13:26:00,
2013-02-23 08:41:00,29.0,25.0,30.24,SE,144,0.0,-999.0,85,-99.99,,,0.00,weatherlink.com 1.10,2013-02-23 13:41:00,
2013-02-23 08:56:00,29.2,25.0,30.24,SE,126,1.0,-999.0,85,-99.99,,,0.00,weatherlink.com 1.10,2013-02-23 13:56:00,
2013-02-23 09:11:00,29.5,26.0,30.24,ESE,116,0.0,-999.0,85,-99.99,,,0.00,weatherlink.com 1.10,2013-02-23 14:11:00,
2013-02-23 09:26:00,29.7,26.0,30.23,SE,140,4.0,-999.0,85,-99.99,,,0.00,weatherlink.com 1.10,2013-02-23 14:26:00,
2013-02-23 09:41:00,30.1,26.0,30.22,ESE,119,2.0,-999.0,85,-99.99,,,0.00,weatherlink.com 1.10,2013-02-23 14:41:00,
2013-02-23 09:56:00,30.3,26.0,30.22,SSE,163,5.0,-999.0,84,-99.99,,,0.00,weatherlink.com 1.10,2013-02-23 14:56:00,
2013-02-23 10:11:00,30.7,26.0,30.22,ESE,105,1.0,-999.0,84,-99.99,,,0.00,weatherlink.com 1.10,2013-02-23 15:11:00,
2013-02-23 10:27:00,31.0,27.0,30.21,SSE,163,0.0,-999.0,84,-99.99,,,0.00,weatherlink.com 1.10,2013-02-23 15:27:00,
2013-02-23 10:41:00,30.9,27.0,30.20,SSE,149,5.0,-999.0,84,-99.99,,,0.00,weatherlink.com 1.10,2013-02-23 15:41:00,
2013-02-23 10:56:00,31.1,27.0,30.20,ESE,102,2.0,-999.0,84,-99.99,,,0.00,weatherlink.com 1.10,2013-02-23 15:56:00,
2013-02-23 11:12:00,31.3,27.0,30.19,East,98,4.0,-999.0,84,-99.99,,,0.00,weatherlink.com 1.10,2013-02-23 16:12:00,
2013-02-23 11:27:00,31.1,27.0,30.18,East,96,1.0,-999.0,85,-99.99,,,0.00,weatherlink.com 1.10,2013-02-23 16:27:00,
2013-02-23 11:42:00,31.2,27.0,30.18,SE,138,4.0,-999.0,85,-99.99,,,0.00,weatherlink.com 1.10,2013-02-23 16:42:00,
2013-02-23 11:57:00,31.1,28.0,30.17,SSE,165,0.0,-999.0,87,-99.99,,,0.00,weatherlink.com 1.10,2013-02-23 16:57:00,
2013-02-23 12:12:00,31.2,28.0,30.16,East,96,8.0,-999.0,87,-99.99,,,0.00,weatherlink.com 1.10,2013-02-23 17:12:00,
2013-02-23 12:27:00,31.3,28.0,30.15,South,171,4.0,-999.0,88,-99.99,,,0.00,weatherlink.com 1.10,2013-02-23 17:27:00,
2013-02-23 12:42:00,31.1,28.0,30.14,SSE,163,7.0,-999.0,89,-99.99,,,0.00,weatherlink.com 1.10,2013-02-23 17:42:00,
2013-02-23 12:57:00,31.5,29.0,30.14,SE,124,2.0,-999.0,89,-99.99,,,0.00,weatherlink.com 1.10,2013-02-23 17:57:00,
2013-02-23 13:12:00,31.7,29.0,30.14,SSE,156,2.0,-999.0,88,-99.99,,,0.00,weatherlink.com 1.10,2013-02-23 18:12:00,
2013-02-23 13:27:00,31.7,29.0,30.15,SE,135,0.0,-999.0,88,-99.99,,,0.00,weatherlink.com 1.10,2013-02-23 18:27:00,
2013-02-23 13:42:00,31.5,29.0,30.14,SSE,163,2.0,-999.0,89,-99.99,,,0.00,weatherlink.com 1.10,2013-02-23 18:42:00,
2013-02-23 13:57:00,31.2,29.0,30.14,East,87,3.0,-999.0,92,-99.99,,,0.00,weatherlink.com 1.10,2013-02-23 18:57:00,
2013-02-23 14:12:00,31.1,29.0,30.14,ESE,113,4.0,-999.0,92,-99.99,,,0.00,weatherlink.com 1.10,2013-02-23 19:12:00,
2013-02-23 14:27:00,31.2,29.0,30.13,East,96,0.0,-999.0,93,-99.99,,,0.00,weatherlink.com 1.10,2013-02-23 19:27:00,
2013-02-23 14:42:00,31.2,29.0,30.13,North,5,1.0,-999.0,93,-99.99,,,0.00,weatherlink.com 1.10,2013-02-23 19:42:00,
2013-02-23 14:57:00,31.4,30.0,30.12,East,94,1.0,-999.0,94,-99.99,,,0.00,weatherlink.com 1.10,2013-02-23 19:57:00,
2013-02-23 15:12:00,31.4,30.0,30.11,SE,136,2.0,-999.0,94,-99.99,,,0.00,weatherlink.com 1.10,2013-02-23 20:12:00,
2013-02-23 15:27:00,31.4,30.0,30.11,SE,143,2.0,-999.0,93,-99.99,,,0.00,weatherlink.com 1.10,2013-02-23 20:27:00,
2013-02-23 15:42:00,31.5,30.0,30.09,NE,44,1.0,-999.0,93,-99.99,,,0.00,weatherlink.com 1.10,2013-02-23 20:42:00,
2013-02-23 15:57:00,31.6,30.0,30.10,SE,143,0.0,-999.0,92,-99.99,,,0.00,weatherlink.com 1.10,2013-02-23 20:57:00,
2013-02-23 16:12:00,31.8,29.0,30.10,East,85,3.0,-999.0,90,-99.99,,,0.00,weatherlink.com 1.10,2013-02-23 21:12:00,
2013-02-23 16:27:00,31.9,29.0,30.09,ENE,65,0.0,-999.0,89,-99.99,,,0.00,weatherlink.com 1.10,2013-02-23 21:27:00,
2013-02-23 16:42:00,32.0,29.0,30.08,SE,129,1.0,-999.0,89,-99.99,,,0.00,weatherlink.com 1.10,2013-02-23 21:42:00,
2013-02-23 16:57:00,32.1,29.0,30.08,SE,138,0.0,-999.0,89,-99.99,,,0.00,weatherlink.com 1.10,2013-02-23 21:57:00,
2013-02-23 17:12:00,31.6,29.0,30.08,ESE,115,1.0,-999.0,91,-99.99,,,0.00,weatherlink.com 1.10,2013-02-23 22:12:00,
2013-02-23 17:27:00,31.3,29.0,30.07,ENE,77,1.0,-999.0,92,-99.99,,,0.00,weatherlink.com 1.10,2013-02-23 22:27:00,
2013-02-23 17:42:00,31.1,29.0,30.06,SE,125,0.0,-999.0,93,-99.99,,,0.00,weatherlink.com 1.10,2013-02-23 22:42:00,
2013-02-23 17:57:00,31.0,29.0,30.07,NE,50,1.0,-999.0,93,-99.99,,,0.00,weatherlink.com 1.10,2013-02-23 22:57:00,
2013-02-23 18:12:00,30.8,29.0,30.06,SE,140,2.0,-999.0,94,-99.99,,,0.00,weatherlink.com 1.10,2013-02-23 23:12:00,
2013-02-23 18:27:00,30.7,29.0,30.05,SSE,155,1.0,-999.0,94,-99.99,,,0.00,weatherlink.com 1.10,2013-02-23 23:27:00,
2013-02-23 18:42:00,30.6,29.0,30.05,ENE,61,4.0,-999.0,95,-99.99,,,0.00,weatherlink.com 1.10,2013-02-23 23:42:00,
2013-02-23 18:57:00,30.6,29.0,30.05,SSE,148,4.0,-999.0,95,-99.99,,,0.00,weatherlink.com 1.10,2013-02-23 23:57:00,
2013-02-23 19:12:00,30.6,29.0,30.05,ENE,77,0.0,-999.0,95,-99.99,,,0.00,weatherlink.com 1.10,2013-02-24 00:12:00,
2013-02-23 19:27:00,30.6,29.0,30.05,ENE,62,2.0,-999.0,95,-99.99,,,0.00,weatherlink.com 1.10,2013-02-24 00:27:00,
2013-02-23 19:42:00,30.5,29.0,30.04,NE,55,1.0,-999.0,95,-99.99,,,0.00,weatherlink.com 1.10,2013-02-24 00:42:00,
2013-02-23 19:57:00,30.5,29.0,30.03,ESE,109,1.0,-999.0,95,-99.99,,,0.00,weatherlink.com 1.10,2013-02-24 00:57:00,
2013-02-23 20:12:00,30.4,29.0,30.02,NE,50,1.0,-999.0,96,-99.99,,,0.00,weatherlink.com 1.10,2013-02-24 01:12:00,
2013-02-23 20:27:00,30.4,29.0,30.03,East,96,2.0,-999.0,96,-99.99,,,0.00,weatherlink.com 1.10,2013-02-24 01:27:00,
2013-02-23 20:42:00,30.3,29.0,30.01,ENE,63,0.0,-999.0,96,-99.99,,,0.00,weatherlink.com 1.10,2013-02-24 01:42:00,
2013-02-23 20:57:00,30.3,29.0,30.01,SE,133,1.0,-999.0,96,-99.99,,,0.00,weatherlink.com 1.10,2013-02-24 01:57:00,
2013-02-23 21:12:00,30.4,29.0,30.01,East,97,5.0,-999.0,96,-99.99,,,0.00,weatherlink.com 1.10,2013-02-24 02:12:00,
2013-02-23 21:28:00,30.3,29.0,30.01,East,92,1.0,-999.0,96,-99.99,,,0.00,weatherlink.com 1.10,2013-02-24 02:28:00,
2013-02-23 21:43:00,30.2,29.0,29.99,East,94,0.0,-999.0,96,-99.99,,,0.00,weatherlink.com 1.10,2013-02-24 02:43:00,
2013-02-23 21:58:00,30.2,29.0,29.99,East,86,1.0,-999.0,96,-99.99,,,0.00,weatherlink.com 1.10,2013-02-24 02:58:00,
2013-02-23 22:13:00,30.3,29.0,29.99,ENE,59,1.0,-999.0,96,-99.99,,,0.00,weatherlink.com 1.10,2013-02-24 03:13:00,
2013-02-23 22:28:00,30.4,29.0,29.97,ENE,78,0.0,-999.0,96,-99.99,,,0.00,weatherlink.com 1.10,2013-02-24 03:28:00,
2013-02-23 22:43:00,30.5,30.0,29.96,NE,46,3.0,-999.0,96,-99.99,,,0.00,weatherlink.com 1.10,2013-02-24 03:43:00,
2013-02-23 22:58:00,30.6,30.0,29.96,ENE,69,0.0,-999.0,96,-99.99,,,0.00,weatherlink.com 1.10,2013-02-24 03:58:00,
2013-02-23 23:13:00,30.8,30.0,29.95,NNE,27,0.0,-999.0,97,-99.99,,,0.00,weatherlink.com 1.10,2013-02-24 04:13:00,
2013-02-23 23:28:00,30.8,30.0,29.94,East,82,3.0,-999.0,97,-99.99,,,0.00,weatherlink.com 1.10,2013-02-24 04:28:00,
2013-02-23 23:43:00,30.7,30.0,29.93,NE,51,4.0,-999.0,96,-99.99,,,0.00,weatherlink.com 1.10,2013-02-24 04:43:00,
2013-02-23 23:58:00,30.6,30.0,29.93,ENE,71,4.0,-999.0,96,-99.99,,,0.00,weatherlink.com 1.10,2013-02-24 04:58:00,